This is the latest recevied weather packets stored in our database for station/object SP8PUB-10. If no packets are shown the sender has not sent any weather packets the latest 10 day(s).
| Time | Temp. | Humidity | Pressure | Rain* | Wind** | Luminosity | Snow |
|---|---|---|---|---|---|---|---|
| 1778094794 | 18.89° C | 61% | 1009 hPa | - | - | - | - |
| 1778093894 | 19.44° C | 59% | 1009 hPa | - | - | - | - |
| 1778092994 | 19.44° C | 58% | 1009 hPa | - | - | - | - |
| 1778092094 | 20° C | 58% | 1008.8 hPa | - | - | - | - |
| 1778091194 | 20.56° C | 56% | 1008.7 hPa | - | - | - | - |
| 1778090294 | 20.56° C | 56% | 1008.6 hPa | - | - | - | - |
| 1778089394 | 21.11° C | 54% | 1008.5 hPa | - | - | - | - |
| 1778088494 | 21.67° C | 54% | 1008.4 hPa | - | - | - | - |
| 1778087594 | 22.22° C | 53% | 1008.4 hPa | - | - | - | - |
| 1778086693 | 22.78° C | 51% | 1008.6 hPa | - | - | - | - |
| 1778085793 | 23.33° C | 50% | 1008.4 hPa | - | - | - | - |
| 1778084893 | 23.89° C | 49% | 1008.4 hPa | - | - | - | - |
| 1778083993 | 24.44° C | 47% | 1008.5 hPa | - | - | - | - |
| 1778083093 | 24.44° C | 48% | 1008.5 hPa | - | - | - | - |
| 1778082193 | 25° C | 46% | 1008.6 hPa | - | - | - | - |
| 1778081293 | 25.56° C | 46% | 1008.6 hPa | - | - | - | - |
| 1778080393 | 25.56° C | 46% | 1008.6 hPa | - | - | - | - |
| 1778079493 | 25.56° C | 46% | 1008.7 hPa | - | - | - | - |
| 1778078592 | 25.56° C | 46% | 1008.6 hPa | - | - | - | - |
| 1778077692 | 25.56° C | 46% | 1008.5 hPa | - | - | - | - |
| 1778076792 | 25.56° C | 46% | 1008.7 hPa | - | - | - | - |
| 1778075892 | 26.11° C | 47% | 1008.7 hPa | - | - | - | - |
| 1778074992 | 26.11° C | 46% | 1008.7 hPa | - | - | - | - |
| 1778074092 | 25.56° C | 46% | 1008.8 hPa | - | - | - | - |
| 1778073192 | 25.56° C | 47% | 1008.7 hPa | - | - | - | - |
* Rain since midnight (hover to see other rain measurements)
** Current wind speed in m/s (hover to see current wind gust speed)